Wind_Speed
53 53 52 51 50 49 45 40 39 39 38 37 35 34 33 32 29 25 22 20 19 18 17 16 14 13 12 11 10 10 9 9 9 9 9 10 10 10 10 11 11 11 12 12 13 13 13 13 14
55 55 54 54 53 51 46 42 41 41 40 38 36 36 35 33 29 25 23 21 19 18 18 17 15 13 12 12 11 11 10 10 10 10 10 10 10 10 11 11 11 12 12 12 12 13 13 13 14
57 56 56 57 56 52 46 43 42 43 42 40 38 38 37 34 30 27 25 22 20 19 19 17 16 14 13 12 12 12 11 11 10 10 11 11 11 11 11 11 12 12 12 13 13 13 13 13 14
57 57 58 59 57 52 46 44 45 46 44 42 41 40 39 35 32 29 27 24 22 21 20 18 17 16 14 14 13 12 12 11 11 11 11 11 11 12 12 12 12 13 13 13 13 13 13 13 13
58 59 59 60 58 52 48 47 48 48 47 45 43 42 40 37 33 30 29 27 25 23 22 20 19 17 16 15 14 14 13 13 13 12 12 12 13 13 13 13 13 13 13 13 13 13 13 13 13
58 60 61 60 57 52 50 49 50 50 49 47 46 45 42 39 36 33 30 29 27 26 24 22 21 19 18 16 16 15 15 15 14 14 14 14 14 14 14 14 14 14 13 13 13 13 13 13 13
58 59 59 58 56 53 51 51 52 51 50 49 49 47 44 41 38 35 32 31 30 28 26 24 23 21 20 19 18 17 17 16 16 15 15 15 15 15 15 15 14 14 14 14 13 13 13 13 13
56 57 58 58 57 53 50 51 52 52 51 51 50 49 46 43 40 37 35 33 32 30 28 26 25 24 22 21 20 19 19 18 18 17 17 17 17 16 16 16 15 15 15 14 14 14 14 13 13
55 57 58 55 54 52 50 51 52 52 52 52 52 50 48 46 43 39 37 35 34 32 30 29 27 26 25 23 22 21 21 20 19 19 18 18 18 18 17 17 16 16 16 16 15 15 14 14 14
56 56 54 52 50 50 49 51 53 53 53 53 54 52 50 48 45 41 39 37 36 34 33 31 30 29 27 26 25 23 22 21 21 20 20 20 19 19 19 18 18 17 17 17 16 16 16 16 16
54 52 49 50 50 51 52 52 53 53 53 53 53 53 51 49 46 44 41 39 38 37 35 34 33 31 29 28 27 26 25 23 22 22 21 21 21 20 20 20 19 19 19 18 18 18 18 18 18
51 49 49 49 49 51 52 53 53 53 52 52 52 51 52 50 48 45 43 40 39 38 37 36 35 33 31 30 29 28 27 25 24 23 22 22 22 21 21 21 21 21 20 20 20 20 20 20 20
50 49 49 49 49 50 51 52 52 53 52 51 52 52 52 50 48 47 45 43 41 40 39 37 36 35 33 32 31 30 29 27 26 25 24 23 23 23 23 23 23 23 22 22 22 22 22 23 23
48 49 50 51 50 50 50 50 51 52 52 51 51 52 52 51 49 47 46 44 42 41 40 39 37 36 35 34 33 32 30 29 28 26 25 25 24 24 24 24 24 24 24 24 24 24 24 25 25
48 49 50 51 51 50 49 50 50 49 50 51 50 50 51 51 49 47 46 45 44 42 41 40 39 38 37 36 34 33 32 30 29 28 27 27 26 26 26 26 26 26 25 25 26 26 27 27 28
48 50 50 50 49 49 49 48 46 48 49 50 49 48 49 49 49 48 47 46 45 43 42 41 41 39 38 37 36 34 33 32 30 30 29 28 28 28 27 27 27 27 27 27 28 29 30 30 31
48 49 48 47 47 47 48 46 45 46 47 48 48 48 48 48 48 48 47 47 45 44 43 43 42 41 39 39 37 36 34 33 32 32 31 31 30 29 29 29 29 29 29 29 30 31 32 33 34
44 45 45 45 45 45 46 45 44 45 45 46 47 48 48 47 48 47 47 47 47 46 45 44 44 42 41 40 39 37 35 34 34 34 33 32 31 31 31 31 31 31 31 32 33 33 34 35 36
40 41 43 43 43 43 43 43 44 45 46 46 46 47 47 47 47 48 47 48 48 47 46 45 43 43 42 40 39 38 37 36 36 35 34 34 33 33 33 32 32 33 33 34 35 35 36 37 38
39 40 40 41 42 41 42 43 44 46 46 46 46 46 46 47 47 48 47 47 48 48 47 45 44 43 42 41 40 39 38 38 37 36 35 35 35 35 35 34 34 34 35 35 36 38 38 39 40
38 38 39 39 40 40 40 42 44 44 46 47 46 45 45 46 47 47 47 47 47 48 47 46 45 44 43 42 41 40 40 39 38 37 36 36 36 36 36 36 36 37 37 38 39 40 40 41 42
36 37 37 38 38 38 38 39 39 41 44 45 45 45 44 44 46 48 48 48 47 47 47 46 46 45 44 43 42 41 40 39 38 38 38 38 38 38 38 38 38 39 39 40 40 41 42 43 44
34 34 35 35 36 36 36 36 35 38 40 41 41 42 43 44 45 46 47 48 48 48 48 47 47 46 44 43 42 41 41 40 40 40 40 40 40 39 39 39 40 41 41 42 43 43 44 45 46
32 32 32 32 33 34 34 34 33 34 35 37 39 40 42 44 45 45 46 47 48 48 48 48 47 46 45 45 44 43 42 41 41 41 41 41 41 41 41 41 42 43 43 44 45 45 46 47 47
32 32 31 31 32 32 31 33 31 30 32 35 38 39 41 42 44 45 46 47 47 48 48 48 48 47 47 46 46 45 44 43 43 42 42 42 42 43 43 44 44 44 45 45 46 47 47 47 47
30 31 31 30 30 28 28 30 29 28 30 33 35 38 40 41 42 43 44 45 47 47 47 47 47 47 47 46 46 45 45 45 44 44 44 44 44 44 45 45 45 45 46 46 47 47 47 47 47
29 30 29 28 28 28 28 27 26 26 28 31 33 35 37 39 40 42 42 43 44 45 46 47 47 47 47 47 47 46 46 45 45 45 45 45 45 45 45 45 45 46 46 46 46 46 46 46 46
29 28 29 28 27 27 27 25 23 23 25 28 31 33 36 37 38 40 41 41 42 43 44 44 45 45 45 46 46 46 46 46 46 46 46 46 45 45 45 45 45 45 46 46 45 45 45 46 45
26 27 28 27 27 27 27 25 23 22 23 26 29 32 34 36 37 38 39 40 40 41 42 42 43 43 43 44 44 45 45 45 45 45 45 45 45 45 45 45 45 45 45 45 44 44 44 44 44
24 25 26 26 26 26 26 25 23 22 22 24 26 30 33 35 36 37 37 38 39 39 40 41 42 42 42 42 43 43 44 44 44 44 43 43 43 43 44 44 44 44 43 43 42 42 42 42 43
Wind_Direction
221 220 220 219 219 218 216 214 214 216 215 214 215 216 218 222 224 226 223 221 221 224 227 229 230 233 236 239 243 248 253 259 267 275 281 286 291 295 299 302 305 308 310 312 314 315 316 316 316
222 221 220 220 219 218 215 214 215 217 218 216 217 217 219 222 223 225 228 226 224 226 227 229 230 233 238 243 247 252 255 260 267 273 279 284 287 291 295 299 303 305 308 310 312 312 313 314 314
223 221 221 220 219 217 214 214 216 218 218 218 218 219 219 220 221 222 226 229 226 228 230 231 233 236 241 246 249 254 258 262 267 272 277 281 285 289 293 297 301 303 306 309 309 310 311 312 312
223 223 222 221 219 216 213 214 218 219 218 218 219 221 221 220 219 219 223 226 226 228 231 233 236 238 242 246 251 255 260 263 266 271 275 281 285 289 292 296 298 301 304 306 307 308 309 309 310
223 223 223 222 219 215 213 214 218 220 219 219 219 222 222 220 219 219 222 226 227 229 231 235 237 240 243 246 251 256 260 262 266 271 276 282 286 289 292 294 296 297 299 301 303 305 306 307 307
224 224 223 221 218 216 214 215 218 221 221 220 220 221 222 221 219 219 222 226 228 230 232 235 238 241 243 246 250 255 259 262 266 271 277 282 286 289 291 291 293 293 294 296 298 300 302 304 304
224 224 224 223 220 216 214 216 219 222 222 222 222 222 223 223 221 221 223 227 229 231 233 236 239 242 244 246 250 253 257 261 265 270 276 280 284 288 289 289 290 290 290 291 293 296 298 300 300
224 224 224 222 220 217 216 218 220 222 224 224 224 224 223 224 223 222 223 227 230 232 235 238 240 243 245 248 250 252 255 259 263 268 274 278 282 285 286 287 287 287 287 287 289 291 293 294 296
222 224 224 222 221 217 217 219 220 222 223 224 225 225 224 224 225 224 224 227 231 234 236 239 241 244 246 249 250 252 254 258 262 267 272 275 278 281 283 284 285 285 284 284 284 286 288 289 291
221 224 223 222 221 218 217 219 219 220 221 223 224 225 225 225 226 225 225 227 231 233 236 239 241 244 246 249 251 254 256 258 261 266 270 273 276 279 281 282 282 282 282 281 282 283 284 286 287
221 222 221 221 220 219 218 217 218 220 221 223 225 225 225 226 227 227 226 227 230 232 234 237 240 243 246 249 252 254 257 259 262 264 268 272 274 277 278 279 279 279 279 279 280 280 281 283 284
219 219 219 220 220 220 220 219 219 221 221 223 225 226 226 225 226 227 227 227 229 232 234 237 239 242 246 249 252 255 257 260 263 265 268 270 272 274 276 277 278 278 278 278 278 279 279 281 282
217 216 217 218 220 221 221 220 220 222 221 223 224 226 227 227 226 227 227 226 228 230 233 236 238 241 244 247 251 254 257 260 263 266 268 270 272 273 275 276 277 278 278 278 278 279 279 279 281
215 216 216 217 218 220 221 221 221 222 223 223 225 226 227 227 227 227 227 227 227 229 231 234 237 240 243 246 249 253 256 259 263 266 269 271 272 273 275 276 277 277 278 278 279 279 279 280 281
214 215 216 216 218 219 221 222 222 223 224 224 225 226 228 228 227 228 228 228 227 228 230 233 235 238 241 245 248 252 255 259 262 266 268 270 272 273 275 275 276 277 277 278 278 279 279 280 281
213 214 215 216 218 220 222 223 222 224 226 225 226 227 228 229 228 228 228 228 228 229 230 232 234 236 239 242 246 249 253 257 261 264 267 268 270 272 274 275 276 276 277 278 278 279 279 280 281
212 214 216 217 219 220 223 223 223 225 226 227 228 228 228 229 228 227 227 229 229 230 231 232 234 236 238 241 244 247 251 256 260 263 266 267 269 271 273 274 275 277 278 278 279 279 280 281 281
213 215 217 218 220 221 223 223 223 226 227 227 228 229 229 229 229 228 228 228 229 230 231 233 234 236 239 241 244 247 251 255 258 261 264 267 269 271 272 274 276 277 279 279 280 280 281 281 281
212 215 217 218 220 222 223 223 223 225 226 227 228 229 229 229 229 229 229 229 230 231 232 233 235 238 240 242 245 248 251 254 258 260 264 267 269 270 272 274 276 277 279 280 281 281 282 282 282
209 212 214 216 219 222 223 223 222 224 226 227 228 229 229 229 230 230 230 230 231 231 232 234 237 239 241 244 246 248 251 254 258 261 265 267 268 270 273 275 276 278 280 281 282 282 282 283 283
207 209 212 215 218 222 224 225 224 225 227 227 228 228 229 229 230 231 231 231 232 232 233 235 237 240 243 245 248 250 252 255 259 262 264 266 268 271 273 275 277 278 280 281 282 283 283 284 284
206 208 211 215 219 222 225 227 226 228 229 229 229 230 230 231 231 232 232 232 233 233 234 236 238 240 243 246 249 251 253 256 259 261 263 266 269 271 273 275 277 278 279 281 282 283 284 284 285
203 206 210 215 220 223 225 228 226 229 231 231 231 231 231 231 231 232 232 233 234 235 235 237 238 240 243 246 249 251 254 256 259 261 264 266 269 271 273 275 277 278 280 281 282 283 284 285 286
200 203 207 212 217 222 224 228 226 229 230 229 229 230 230 230 231 232 232 233 234 235 236 238 239 241 243 245 248 251 254 256 259 261 263 266 269 271 273 275 277 278 280 282 283 284 285 286 286
197 201 205 211 217 220 222 228 227 228 228 227 227 228 229 230 231 231 233 234 234 235 237 238 240 242 244 246 248 250 253 255 258 260 263 265 268 270 273 275 276 278 280 281 283 284 285 286 286
197 202 207 214 219 221 223 227 226 227 228 227 226 227 228 230 231 232 232 233 234 235 237 238 240 242 243 246 248 250 252 255 257 260 263 265 267 270 272 274 276 278 280 281 283 284 285 286 286
200 203 208 216 222 225 225 228 228 229 229 228 227 228 229 230 231 232 232 233 234 235 237 238 240 242 244 246 248 250 252 254 257 259 262 264 267 269 271 274 276 278 280 281 283 284 285 285 286
203 206 209 215 222 226 226 227 229 229 230 228 227 227 228 229 231 232 233 234 235 235 236 238 240 242 244 246 248 250 253 255 257 259 262 264 267 269 271 273 276 278 279 281 282 283 284 285 286
206 209 212 218 223 228 230 230 230 231 231 229 228 227 227 228 230 232 233 234 235 236 237 238 240 241 244 246 249 251 253 255 258 260 263 265 267 268 270 273 275 277 279 280 281 282 283 284 285
210 213 216 219 225 230 233 234 234 235 233 232 231 229 229 229 231 233 234 234 235 236 238 239 240 242 244 246 248 251 253 256 259 261 263 265 267 268 271 273 275 277 278 279 281 282 283 284 285
Height
5794 5800 5806 5812 5817 5823 5830 5838 5841 5843 5847 5851 5855 5858 5861 5864 5868 5874 5876 5877 5880 5881 5883 5884 5886 5887 5888 5889 5890 5891 5891 5892 5893 5893 5893 5894 5894 5894 5894 5894 5894 5893 5892 5892 5891 5891 5890 5889 5888
5786 5792 5798 5803 5809 5816 5826 5833 5836 5839 5843 5847 5851 5854 5857 5860 5865 5870 5872 5874 5877 5879 5881 5882 5884 5885 5886 5887 5888 5889 5890 5891 5891 5892 5892 5892 5893 5893 5893 5892 5892 5891 5891 5890 5889 5889 5888 5887 5886
5777 5783 5789 5794 5801 5811 5822 5828 5830 5832 5837 5843 5846 5849 5853 5857 5862 5867 5869 5871 5874 5876 5878 5880 5882 5883 5884 5885 5886 5888 5888 5889 5890 5890 5891 5891 5891 5891 5891 5890 5890 5889 5889 5888 5887 5887 5886 5885 5884
5768 5774 5780 5786 5795 5807 5817 5821 5823 5826 5832 5837 5841 5844 5848 5854 5859 5863 5865 5867 5871 5873 5875 5877 5879 5881 5882 5884 5885 5886 5887 5887 5888 5889 5889 5889 5889 5889 5889 5888 5888 5887 5887 5886 5885 5884 5883 5882 5881
5759 5764 5770 5778 5790 5801 5810 5813 5815 5820 5825 5831 5835 5839 5843 5849 5855 5859 5862 5864 5867 5870 5872 5874 5876 5878 5880 5882 5883 5884 5885 5886 5886 5887 5887 5887 5887 5887 5887 5886 5886 5885 5884 5884 5883 5882 5881 5880 5879
5749 5755 5763 5773 5785 5795 5802 5805 5808 5813 5819 5825 5829 5833 5838 5844 5850 5855 5858 5860 5863 5866 5869 5871 5874 5876 5878 5879 5881 5882 5883 5884 5884 5885 5885 5885 5885 5885 5884 5884 5883 5883 5882 5881 5880 5880 5879 5878 5877
5741 5749 5758 5768 5778 5786 5795 5797 5801 5806 5812 5819 5823 5828 5833 5839 5845 5851 5854 5856 5859 5862 5865 5868 5871 5873 5875 5877 5878 5879 5880 5881 5882 5882 5882 5882 5882 5882 5882 5881 5881 5880 5879 5879 5878 5877 5876 5875 5874
5733 5742 5749 5758 5769 5780 5788 5789 5794 5799 5805 5811 5817 5823 5829 5834 5840 5846 5850 5852 5855 5858 5862 5864 5867 5869 5872 5874 5875 5877 5878 5879 5879 5879 5880 5880 5879 5879 5879 5878 5878 5877 5877 5876 5875 5874 5873 5872 5871
5724 5733 5741 5753 5764 5774 5779 5782 5787 5791 5797 5803 5809 5816 5823 5828 5834 5840 5845 5848 5851 5854 5858 5861 5863 5866 5868 5870 5872 5873 5875 5876 5876 5877 5877 5877 5876 5876 5876 5875 5875 5874 5874 5873 5872 5871 5870 5869 5868
5715 5725 5739 5750 5757 5765 5769 5773 5778 5783 5789 5795 5802 5809 5816 5822 5828 5834 5840 5844 5846 5849 5853 5856 5859 5862 5864 5866 5868 5869 5871 5872 5873 5873 5873 5873 5873 5873 5873 5872 5872 5871 5870 5869 5869 5868 5867 5866 5865
5710 5722 5734 5740 5746 5752 5757 5763 5769 5775 5782 5789 5796 5803 5810 5816 5821 5827 5833 5837 5841 5844 5847 5851 5854 5857 5860 5862 5863 5865 5867 5868 5869 5870 5870 5870 5870 5869 5869 5868 5868 5867 5867 5866 5865 5864 5863 5862 5861
5705 5716 5724 5730 5736 5742 5748 5755 5762 5767 5776 5783 5790 5796 5802 5809 5814 5820 5826 5831 5835 5838 5842 5846 5849 5852 5855 5857 5859 5861 5862 5864 5865 5865 5866 5866 5866 5865 5865 5864 5864 5863 5863 5862 5861 5860 5859 5858 5857
5698 5708 5715 5721 5726 5733 5740 5747 5754 5761 5769 5775 5782 5789 5795 5802 5807 5813 5818 5824 5829 5833 5836 5840 5844 5847 5849 5852 5854 5856 5857 5859 5860 5861 5861 5861 5861 5861 5861 5860 5859 5859 5858 5858 5857 5856 5855 5854 5853
5692 5699 5706 5712 5718 5725 5733 5740 5747 5755 5762 5768 5774 5781 5788 5794 5800 5806 5811 5817 5823 5827 5831 5834 5838 5841 5844 5846 5849 5850 5852 5853 5854 5855 5856 5856 5856 5856 5856 5856 5855 5854 5854 5853 5852 5851 5850 5849 5848
5683 5690 5697 5704 5711 5719 5726 5733 5742 5750 5755 5762 5768 5774 5780 5787 5793 5799 5804 5810 5815 5820 5824 5828 5832 5835 5838 5841 5843 5845 5846 5848 5849 5850 5851 5851 5851 5851 5851 5851 5850 5849 5849 5848 5847 5846 5845 5844 5842
5674 5681 5689 5698 5706 5713 5720 5728 5738 5742 5748 5755 5761 5767 5773 5780 5786 5792 5797 5802 5807 5812 5817 5821 5825 5829 5832 5834 5837 5839 5840 5842 5843 5844 5845 5845 5846 5846 5845 5845 5845 5844 5843 5842 5841 5840 5839 5838 5836
5666 5675 5685 5693 5700 5707 5714 5723 5731 5735 5741 5748 5754 5760 5766 5772 5778 5784 5790 5795 5800 5805 5810 5814 5818 5822 5825 5828 5830 5833 5835 5836 5837 5838 5839 5839 5840 5840 5840 5839 5839 5838 5837 5836 5835 5834 5832 5831 5829
5664 5673 5681 5688 5695 5701 5708 5717 5724 5728 5734 5740 5746 5752 5758 5764 5771 5776 5782 5787 5792 5797 5802 5806 5810 5814 5817 5820 5823 5826 5828 5830 5831 5832 5832 5833 5833 5833 5833 5833 5832 5831 5831 5830 5828 5827 5826 5824 5822
5660 5667 5675 5682 5689 5695 5701 5709 5716 5720 5725 5732 5739 5745 5751 5757 5763 5768 5773 5779 5784 5789 5794 5799 5803 5806 5810 5813 5816 5819 5821 5822 5824 5824 5825 5826 5826 5826 5826 5826 5825 5824 5824 5822 5821 5819 5818 5816 5814
5653 5661 5668 5676 5682 5688 5694 5701 5707 5712 5718 5725 5731 5737 5744 5749 5755 5760 5766 5771 5776 5781 5786 5791 5795 5798 5802 5805 5808 5810 5813 5814 5816 5817 5818 5818 5818 5818 5818 5818 5818 5817 5816 5814 5813 5811 5809 5807 5805
5648 5656 5664 5671 5676 5681 5688 5694 5700 5706 5711 5717 5723 5730 5736 5742 5747 5752 5758 5763 5768 5773 5778 5783 5787 5790 5793 5797 5799 5802 5804 5807 5809 5810 5810 5810 5810 5810 5810 5810 5809 5808 5807 5806 5804 5802 5800 5799 5796
5644 5652 5659 5665 5670 5676 5682 5688 5695 5700 5704 5710 5718 5723 5729 5734 5739 5744 5750 5755 5759 5764 5769 5774 5778 5781 5785 5788 5791 5793 5796 5798 5800 5801 5801 5802 5802 5802 5802 5801 5801 5800 5798 5797 5795 5793 5791 5789 5787
5642 5648 5655 5661 5666 5672 5676 5682 5689 5692 5698 5705 5711 5716 5721 5726 5731 5736 5741 5746 5751 5755 5760 5764 5768 5772 5776 5779 5782 5784 5787 5789 5791 5791 5792 5793 5793 5793 5793 5792 5791 5790 5789 5787 5785 5783 5781 5778 5776
5638 5645 5651 5655 5660 5666 5672 5676 5683 5688 5693 5699 5703 5708 5713 5717 5722 5727 5732 5737 5742 5746 5751 5755 5759 5763 5766 5770 5773 5776 5778 5780 5781 5782 5783 5784 5784 5784 5783 5782 5781 5780 5779 5777 5775 5773 5770 5768 5765
5634 5641 5647 5651 5655 5661 5666 5670 5678 5683 5686 5690 5695 5699 5704 5708 5713 5718 5723 5728 5732 5737 5741 5746 5750 5754 5757 5760 5763 5766 5769 5770 5772 5773 5774 5774 5774 5774 5773 5773 5771 5770 5768 5767 5765 5762 5760 5757 5754
5632 5638 5645 5649 5652 5657 5661 5665 5673 5676 5679 5683 5687 5691 5696 5700 5705 5709 5714 5718 5723 5727 5732 5736 5740 5744 5747 5751 5754 5756 5759 5761 5762 5763 5764 5764 5764 5764 5763 5762 5761 5760 5758 5756 5754 5751 5749 5746 5744
5629 5635 5641 5645 5649 5653 5656 5662 5667 5670 5673 5676 5680 5684 5688 5693 5697 5701 5705 5709 5713 5718 5722 5727 5731 5734 5738 5741 5744 5746 5749 5750 5752 5753 5754 5754 5754 5754 5753 5752 5751 5749 5747 5745 5743 5741 5738 5736 5733
5628 5633 5637 5641 5645 5648 5653 5657 5661 5664 5667 5670 5674 5677 5681 5685 5689 5692 5696 5700 5704 5708 5713 5717 5721 5724 5728 5731 5734 5736 5738 5740 5741 5742 5743 5743 5743 5743 5742 5741 5740 5739 5737 5735 5733 5730 5728 5725 5722
5626 5630 5634 5638 5641 5645 5648 5654 5656 5659 5661 5664 5667 5670 5674 5677 5681 5684 5688 5692 5696 5700 5704 5707 5711 5715 5718 5721 5724 5726 5728 5730 5731 5732 5733 5733 5733 5732 5732 5731 5730 5728 5726 5724 5722 5720 5718 5715 5712
5623 5627 5631 5635 5638 5640 5644 5651 5651 5653 5656 5658 5661 5664 5667 5670 5673 5677 5680 5684 5688 5691 5695 5698 5702 5705 5708 5711 5714 5716 5718 5719 5721 5721 5722 5722 5722 5722 5721 5720 5719 5718 5716 5714 5712 5710 5707 5704 5702